Temp
10 10 10 10 11 11 11 11 11 11 11 11 11 12 12 12 13 13 13 13 14 14 15 16 16 16 16 17 17 17 17 17 17 16 15 14 15 14 14 13 12 12 11 10 9
10 10 10 10 11 11 11 11 11 11 11 11 11 12 12 13 13 13 13 14 14 14 15 15 16 16 17 18 17 17 18 17 17 16 16 15 15 15 13 13 12 11 11 10 9
10 10 10 11 11 11 11 11 11 11 11 11 11 12 12 13 13 13 14 14 14 15 16 16 16 17 17 17 17 17 17 17 16 16 16 14 15 15 14 13 12 11 10 10 10
10 10 10 11 11 11 11 11 11 11 11 11 12 12 12 13 13 13 14 14 14 15 16 16 17 17 17 17 18 18 17 17 17 16 16 16 14 14 14 13 12 11 10 10 10
10 10 11 11 11 12 12 12 12 11 11 11 12 12 12 13 13 13 14 14 14 15 15 16 17 17 17 18 18 18 17 17 17 17 16 16 15 14 13 13 12 11 10 10 10
10 11 11 11 11 12 12 12 12 12 12 12 12 12 12 13 13 13 14 14 14 14 15 16 17 17 18 19 18 18 18 18 17 17 17 16 15 14 13 13 12 11 11 11 11
10 11 11 11 11 12 12 12 12 12 12 12 12 12 13 13 13 13 14 14 14 14 15 16 16 17 18 19 18 18 18 18 18 18 17 15 15 14 13 13 12 12 12 11 11
10 11 11 11 12 12 12 12 12 12 12 12 12 12 13 13 12 13 13 13 14 14 15 15 16 17 18 18 18 19 19 18 18 18 17 15 15 14 14 13 13 13 12 12 12
10 11 11 11 11 12 12 12 12 12 13 13 12 12 13 13 13 14 14 14 14 15 15 15 16 17 18 18 19 19 18 18 18 18 18 17 16 15 14 14 14 14 13 12 12
10 11 11 11 11 11 12 12 12 13 13 13 12 13 14 13 13 14 14 14 15 15 15 16 16 17 19 19 20 19 18 19 19 18 18 17 17 15 15 15 15 14 13 13 12
10 11 11 11 11 11 12 12 12 13 13 13 13 13 14 14 14 14 14 14 15 15 16 16 17 18 17 19 18 19 20 20 19 18 18 19 17 16 16 16 15 15 14 13 13
10 11 11 11 11 11 12 11 10 10 11 13 13 13 13 14 14 14 14 14 15 16 16 17 18 18 17 18 19 19 20 20 19 19 18 19 18 17 16 17 16 15 14 14 14
11 11 11 11 11 11 11 11 11 11 11 13 14 13 13 13 14 14 15 15 16 16 17 17 17 18 18 18 18 19 20 19 20 19 19 19 19 18 17 17 17 16 15 13 14
11 11 11 11 11 11 11 12 12 12 11 15 13 14 14 14 15 15 15 15 16 17 17 18 17 18 18 18 19 20 19 19 19 19 20 20 20 19 19 17 17 16 16 15 15
11 11 11 11 11 11 9 10 11 11 15 16 15 15 14 15 16 16 15 15 16 17 17 18 18 18 18 19 19 19 19 19 19 19 20 21 20 19 18 18 17 17 17 14 13
11 11 11 11 11 11 12 11 11 11 16 16 15 15 15 15 16 16 16 16 16 17 17 18 19 18 18 18 19 19 19 19 19 19 20 21 21 19 18 18 17 17 17 16 16
10 11 11 11 11 11 11 11 11 14 18 17 16 16 16 16 17 16 16 16 17 17 18 18 18 18 18 19 19 19 19 20 20 21 21 20 20 17 17 17 17 17 17 17 15
10 10 11 11 11 11 11 10 13 16 18 18 17 16 17 17 17 16 16 16 17 18 19 19 19 18 19 19 19 19 19 20 20 20 19 19 18 16 17 17 16 17 17 17 17
10 10 10 10 11 11 10 11 14 17 19 18 17 17 18 18 18 17 17 17 18 18 19 20 20 19 19 19 19 19 20 20 21 21 21 17 14 14 14 14 16 16 16 16 16
10 10 10 10 11 11 9 12 15 16 18 18 18 18 18 18 18 18 18 18 18 18 18 19 19 19 19 19 19 19 19 20 21 20 19 14 14 13 12 12 12 16 16 16 16
9 9 9 10 10 10 10 13 15 16 17 18 19 18 19 19 18 19 19 19 19 19 18 19 20 19 18 19 19 19 19 19 20 21 20 15 17 15 14 12 8 12 14 15 16
9 9 10 10 10 10 12 13 15 16 16 16 18 19 19 19 19 19 19 19 18 18 18 18 18 18 17 18 19 20 20 20 20 18 19 18 16 15 16 12 10 13 13 14 14
9 9 10 10 10 12 13 14 15 15 16 16 18 18 19 19 19 19 18 18 18 18 18 18 18 15 16 17 16 17 18 19 19 19 19 20 15 15 12 13 13 13 13 12 12
10 11 9 10 10 12 14 15 15 15 16 17 17 18 19 19 19 17 17 17 17 17 17 17 17 15 13 15 15 14 16 18 18 19 19 19 17 12 10 8 10 11 11 11 10
9 11 11 11 11 12 13 15 15 16 16 16 17 18 18 17 19 19 17 17 17 17 17 17 16 15 15 14 13 15 15 17 18 18 18 18 17 15 14 12 10 13 13 10 9
7 8 11 13 12 13 13 13 15 16 16 16 17 18 18 17 15 15 17 17 17 16 16 17 17 15 14 14 15 14 17 17 17 17 17 18 17 16 16 14 13 11 12 12 12
10 10 11 11 13 14 14 14 15 14 16 17 17 16 15 16 13 15 14 13 17 17 17 17 17 16 17 17 16 16 16 17 17 17 17 16 15 14 14 14 13 12 11 10 9
Height
3150 3151 3153 3154 3155 3156 3157 3157 3157 3158 3159 3160 3161 3162 3163 3164 3165 3166 3168 3169 3170 3171 3171 3172 3170 3172 3173 3176 3175 3174 3174 3171 3172 3173 3175 3175 3174 3174 3176 3174 3178 3177 3178 3180 3182
3149 3151 3153 3154 3155 3156 3156 3157 3157 3158 3158 3159 3161 3162 3163 3164 3166 3167 3168 3169 3170 3172 3172 3170 3174 3176 3175 3177 3176 3175 3174 3174 3174 3175 3176 3176 3177 3177 3173 3176 3177 3176 3179 3180 3183
3149 3151 3152 3153 3154 3155 3156 3157 3157 3158 3158 3159 3160 3162 3164 3165 3167 3167 3168 3170 3171 3172 3172 3171 3173 3176 3176 3177 3175 3178 3176 3178 3175 3179 3178 3179 3180 3176 3177 3176 3177 3176 3178 3181 3185
3148 3150 3151 3152 3153 3154 3156 3157 3158 3158 3158 3159 3160 3161 3163 3165 3168 3167 3168 3171 3172 3173 3173 3172 3176 3178 3174 3177 3176 3178 3179 3178 3180 3180 3180 3179 3178 3178 3178 3178 3178 3178 3180 3183 3186
3148 3149 3150 3151 3152 3154 3155 3156 3157 3158 3158 3159 3159 3160 3163 3165 3166 3166 3168 3170 3172 3173 3173 3175 3177 3177 3177 3177 3177 3179 3180 3181 3182 3182 3182 3182 3183 3182 3181 3181 3181 3181 3183 3185 3188
3147 3148 3149 3150 3151 3152 3154 3155 3156 3157 3158 3158 3159 3159 3161 3164 3168 3165 3167 3170 3172 3175 3176 3178 3177 3176 3176 3176 3178 3180 3181 3181 3182 3183 3183 3181 3182 3185 3184 3184 3184 3184 3185 3187 3189
3146 3146 3147 3148 3149 3150 3152 3153 3155 3156 3157 3157 3158 3158 3158 3159 3164 3165 3166 3170 3173 3176 3176 3179 3178 3177 3176 3176 3178 3179 3180 3180 3182 3183 3184 3185 3183 3184 3186 3186 3186 3188 3188 3188 3191
3144 3145 3145 3146 3147 3148 3150 3151 3153 3154 3155 3156 3156 3156 3154 3158 3159 3163 3165 3168 3171 3174 3175 3176 3177 3176 3178 3177 3178 3177 3177 3180 3182 3182 3182 3183 3185 3186 3186 3187 3189 3189 3190 3191 3192
3143 3143 3144 3144 3145 3146 3147 3149 3151 3152 3153 3154 3154 3154 3153 3155 3156 3160 3163 3168 3172 3175 3176 3176 3175 3175 3175 3175 3175 3174 3177 3178 3180 3181 3182 3183 3185 3186 3186 3187 3189 3190 3190 3189 3191
3142 3142 3142 3142 3143 3144 3145 3146 3148 3150 3151 3152 3152 3155 3152 3153 3155 3158 3162 3167 3172 3175 3177 3177 3176 3173 3172 3171 3172 3175 3177 3176 3176 3181 3181 3181 3183 3186 3187 3186 3186 3187 3190 3192 3193
3140 3140 3140 3141 3142 3142 3144 3146 3151 3152 3148 3151 3151 3151 3152 3153 3156 3158 3163 3167 3171 3173 3174 3175 3174 3170 3168 3171 3173 3174 3175 3175 3176 3179 3181 3180 3184 3183 3185 3186 3184 3185 3185 3190 3194
3138 3138 3138 3139 3140 3141 3142 3144 3148 3147 3147 3147 3147 3150 3152 3155 3155 3158 3163 3167 3169 3171 3172 3174 3168 3169 3174 3174 3174 3175 3173 3173 3175 3177 3179 3179 3179 3180 3182 3183 3184 3181 3174 3187 3190
3136 3137 3137 3137 3138 3140 3141 3142 3143 3145 3145 3145 3144 3147 3151 3153 3155 3157 3162 3165 3168 3169 3169 3170 3168 3170 3173 3173 3174 3173 3171 3172 3175 3175 3177 3177 3178 3178 3180 3182 3184 3186 3183 3182 3192
3135 3135 3135 3136 3139 3138 3140 3141 3142 3145 3146 3144 3144 3147 3151 3152 3155 3157 3160 3165 3166 3167 3167 3167 3167 3170 3170 3171 3171 3169 3169 3171 3174 3174 3172 3172 3174 3176 3178 3180 3183 3185 3178 3181 3182
3132 3133 3133 3134 3137 3138 3141 3141 3143 3146 3143 3139 3143 3147 3149 3151 3154 3156 3159 3162 3164 3165 3166 3164 3164 3167 3168 3169 3169 3170 3171 3171 3171 3170 3169 3164 3167 3167 3173 3178 3179 3182 3182 3164 3162
3130 3130 3131 3133 3135 3137 3138 3141 3145 3151 3138 3138 3140 3144 3148 3149 3153 3155 3158 3161 3163 3163 3164 3162 3163 3164 3165 3167 3167 3169 3170 3170 3169 3168 3164 3158 3159 3162 3165 3173 3174 3178 3181 3172 3175
3127 3128 3129 3130 3132 3135 3138 3142 3149 3141 3132 3137 3139 3143 3147 3148 3151 3153 3156 3158 3160 3160 3160 3162 3161 3161 3163 3164 3165 3168 3168 3164 3163 3159 3155 3155 3152 3153 3158 3165 3169 3172 3176 3178 3175
3124 3125 3126 3129 3131 3134 3137 3144 3142 3132 3132 3132 3138 3143 3145 3146 3149 3152 3155 3156 3157 3156 3155 3157 3158 3159 3160 3161 3162 3164 3164 3160 3158 3156 3159 3155 3160 3162 3163 3163 3168 3171 3174 3175 3175
3122 3122 3124 3127 3129 3132 3137 3140 3133 3128 3128 3131 3138 3141 3142 3144 3147 3150 3152 3153 3153 3154 3153 3150 3150 3152 3157 3160 3162 3161 3159 3157 3154 3150 3149 3156 3157 3154 3172 3172 3170 3175 3174 3170 3168
3120 3121 3123 3125 3128 3131 3135 3131 3130 3127 3127 3130 3134 3137 3139 3141 3144 3146 3147 3148 3149 3150 3151 3151 3151 3150 3154 3158 3159 3159 3159 3157 3152 3149 3151 3159 3164 3168 3171 3167 3156 3178 3173 3169 3169
3120 3122 3123 3125 3128 3130 3131 3130 3132 3131 3129 3129 3132 3135 3136 3138 3142 3142 3143 3144 3147 3148 3150 3149 3148 3154 3152 3156 3158 3159 3158 3156 3151 3148 3146 3154 3153 3156 3162 3158 3133 3165 3168 3161 3159
3121 3124 3123 3125 3128 3129 3130 3128 3132 3130 3130 3128 3129 3131 3133 3135 3139 3139 3139 3141 3145 3147 3149 3150 3151 3151 3157 3154 3154 3154 3153 3152 3149 3153 3151 3148 3142 3146 3150 3149 3145 3160 3165 3160 3153
3121 3124 3122 3124 3127 3128 3128 3128 3132 3132 3131 3132 3130 3129 3132 3133 3138 3137 3137 3141 3144 3147 3148 3150 3149 3151 3158 3157 3151 3152 3151 3152 3151 3151 3148 3146 3148 3147 3159 3158 3160 3164 3165 3163 3157
3120 3124 3121 3122 3123 3126 3127 3127 3128 3130 3130 3132 3131 3129 3130 3132 3134 3134 3141 3145 3146 3146 3147 3150 3150 3155 3162 3165 3160 3156 3154 3153 3154 3150 3146 3145 3149 3155 3155 3156 3159 3165 3159 3152 3157
3120 3121 3123 3122 3122 3123 3125 3126 3126 3128 3129 3129 3130 3129 3129 3135 3132 3134 3134 3141 3144 3143 3148 3151 3153 3152 3158 3159 3161 3158 3159 3157 3156 3155 3153 3151 3153 3159 3154 3142 3143 3148 3158 3162 3157
3116 3113 3116 3122 3123 3124 3123 3124 3124 3125 3128 3130 3130 3129 3128 3123 3131 3132 3130 3136 3142 3145 3147 3149 3151 3148 3153 3153 3154 3156 3158 3156 3156 3155 3154 3150 3153 3153 3160 3158 3157 3145 3152 3156 3152
3117 3117 3117 3118 3120 3123 3123 3123 3122 3123 3126 3128 3128 3123 3122 3121 3134 3130 3134 3136 3139 3144 3145 3148 3148 3150 3150 3148 3150 3153 3148 3150 3152 3153 3153 3155 3152 3150 3152 3155 3154 3149 3147 3144 3154
Wind_Speed
15 15 14 12 10 9 8 7 8 9 11 12 12 9 8 8 7 9 10 8 6 6 11 11 10 8 4 4 3 5 6 9 11 10 5 6 6 7 8 12 3 3 7 17 18
14 14 13 11 10 9 7 6 6 7 10 13 13 11 8 8 7 10 11 10 8 7 10 5 4 3 5 1 1 3 10 13 12 11 9 5 5 1 4 6 9 6 16 18 19
13 14 12 11 10 9 8 6 4 4 6 10 13 13 9 7 4 8 8 12 9 7 9 11 4 3 2 4 3 4 10 9 11 10 7 10 10 11 11 7 8 10 16 18 20
13 14 13 11 11 10 9 7 5 3 3 6 12 14 10 10 3 8 9 14 11 8 11 9 5 2 5 2 6 6 10 10 9 6 9 5 15 11 13 10 9 10 14 15 19
10 14 14 12 12 12 11 9 7 5 4 4 8 14 13 14 3 14 10 16 11 7 5 5 5 2 6 6 9 8 5 7 6 7 8 10 12 13 14 9 11 13 12 15 17
6 11 15 14 13 13 12 11 9 7 6 6 6 11 17 19 5 11 10 17 12 5 4 5 3 4 3 4 5 5 5 6 7 5 5 10 3 11 12 13 14 12 14 14 14
7 7 11 16 16 15 15 13 11 10 9 8 8 10 20 26 7 9 12 17 7 8 5 6 4 5 11 3 4 4 8 8 6 5 7 6 14 14 13 13 13 12 13 13 11
7 8 8 10 15 17 17 16 14 12 11 10 10 13 17 18 17 13 14 14 11 10 7 4 6 6 3 4 5 8 10 7 4 8 4 8 13 13 13 13 12 12 11 11 12
7 8 9 9 10 13 17 17 16 14 12 11 10 12 12 16 25 16 17 14 12 11 10 8 8 7 10 10 13 8 10 9 9 8 9 8 9 14 13 13 10 12 10 11 13
7 8 8 10 10 9 11 14 15 14 13 11 10 6 8 12 12 20 16 14 11 12 10 9 10 11 10 13 8 4 1 5 11 7 7 11 12 14 12 15 10 14 11 10 9
8 8 8 9 10 9 8 7 3 6 13 9 5 6 5 4 10 15 16 15 13 12 14 14 14 17 9 4 5 5 7 6 6 5 6 7 12 14 13 15 13 17 16 13 7
8 8 8 8 10 9 7 10 1 10 9 12 12 13 7 8 11 17 17 17 14 15 15 15 23 1 10 2 6 6 6 7 7 6 8 9 11 18 16 12 16 16 16 13 14
8 8 8 8 9 8 8 13 9 13 8 12 13 14 11 10 11 18 19 17 15 15 18 16 18 11 8 8 8 9 12 7 8 7 9 6 7 16 15 12 16 9 19 22 20
8 8 8 8 9 7 5 9 9 9 6 12 16 13 11 10 11 16 18 16 15 16 17 19 22 9 9 10 13 14 5 1 7 10 15 16 16 16 13 13 16 14 21 15 24
9 9 9 8 7 7 4 8 11 8 6 18 16 5 15 16 10 17 17 17 15 13 15 15 14 17 14 12 13 4 9 7 9 13 18 20 20 23 18 15 16 17 15 21 23
10 10 9 9 10 7 10 12 11 5 10 14 18 19 17 14 13 15 19 17 12 13 13 16 11 16 12 15 15 2 5 10 11 13 18 18 27 23 22 22 19 16 16 14 15
10 10 10 11 15 12 14 13 7 15 15 20 17 19 19 14 15 17 20 19 18 14 17 13 10 11 14 16 14 15 12 16 14 15 16 12 15 11 31 25 23 21 20 13 17
10 10 11 13 13 14 20 11 12 14 14 13 18 19 20 17 15 17 16 18 17 16 15 16 15 16 16 14 13 14 18 19 11 4 12 24 6 6 26 21 24 19 22 18 19
9 9 10 14 16 18 19 18 16 16 14 14 19 21 19 18 15 15 17 17 17 18 19 13 16 20 19 15 16 15 19 17 23 22 4 1 7 11 10 18 16 19 20 20 20
6 7 7 15 17 22 15 27 21 14 3 17 22 20 20 20 16 16 17 16 17 15 17 14 15 21 16 14 15 18 19 18 16 11 7 7 4 20 15 19 7 18 18 18 16
5 8 10 13 18 23 22 21 14 9 8 12 19 18 19 19 16 15 17 9 14 10 15 13 6 7 0 9 17 17 20 19 22 11 2 3 6 16 13 27 38 24 24 31 32
15 3 14 13 17 18 21 22 12 10 13 10 9 17 18 17 16 16 17 11 13 8 11 14 16 12 16 14 16 15 14 12 17 5 19 13 22 18 11 12 33 20 18 16 21
9 5 10 15 15 16 20 19 11 15 13 13 9 10 16 17 15 16 14 10 13 7 6 4 2 8 4 20 11 7 12 14 13 15 11 13 5 13 12 5 13 21 22 22 20
8 5 8 17 18 15 19 17 12 17 12 20 13 11 15 16 18 16 10 9 10 9 8 8 7 6 12 20 23 20 14 10 10 14 19 18 16 12 5 8 7 18 17 17 14
8 7 7 14 19 14 14 19 18 18 10 11 14 16 14 20 18 14 19 16 10 9 8 8 7 6 4 10 25 8 4 17 11 13 16 21 22 6 4 6 19 15 5 15 16
6 5 8 9 18 14 9 9 18 15 20 16 13 13 11 9 4 6 10 11 10 6 8 6 11 11 22 12 14 34 21 20 18 18 20 19 18 12 12 4 7 10 6 8 8
7 6 11 4 13 18 14 13 18 12 19 16 16 14 16 20 19 2 3 12 11 5 5 8 10 4 13 9 13 33 21 9 8 9 10 12 10 11 8 4 3 6 5 6 10
Wind_Direction
197 197 200 205 215 226 227 226 229 229 224 218 215 221 219 211 201 176 165 192 167 125 123 81 27 6 15 84 73 39 82 69 78 81 72 90 56 76 86 117 137 82 129 157 153
201 201 205 214 224 223 218 217 223 228 225 219 216 220 219 211 206 194 228 187 173 142 159 88 39 256 239 93 352 129 80 87 78 92 86 69 54 119 164 123 107 114 142 158 148
206 207 212 222 225 217 207 202 203 220 227 224 219 219 214 202 189 252 243 185 173 138 124 103 38 302 273 184 8 79 119 87 80 95 75 80 74 41 48 125 122 164 146 156 155
214 213 219 225 221 213 209 206 201 204 226 228 222 218 207 174 102 245 249 193 172 143 143 25 296 298 290 91 115 110 82 97 98 89 86 75 54 51 75 97 123 137 140 149 158
229 222 225 229 224 217 216 217 218 220 228 235 229 218 206 195 280 268 237 195 180 162 89 341 344 241 171 123 109 111 120 118 106 109 80 87 76 77 90 107 121 131 140 142 156
253 237 234 232 230 225 224 225 229 234 237 242 243 223 211 190 185 271 217 190 183 228 288 290 318 50 90 62 124 131 136 141 145 128 120 91 122 85 92 109 124 130 135 148 157
259 252 244 241 236 233 231 232 237 244 246 249 251 241 221 194 216 235 215 184 215 224 208 268 254 268 307 212 182 163 154 143 127 139 134 117 113 109 106 112 117 125 143 151 158
267 257 251 249 244 240 237 238 241 249 252 255 256 254 241 205 223 243 214 210 218 225 236 265 261 274 192 206 185 205 205 125 144 168 114 93 126 129 121 117 120 138 142 158 164
277 265 255 249 250 248 244 241 242 248 254 258 258 255 246 230 229 216 201 212 217 228 242 251 211 258 258 211 194 196 127 210 154 177 178 137 140 161 144 141 127 144 152 161 166
276 274 261 250 247 250 248 242 241 247 252 254 252 255 244 240 238 209 199 201 210 223 231 234 235 252 205 216 242 106 152 199 144 162 202 179 155 169 161 167 157 167 147 158 173
274 273 267 253 244 247 245 227 235 291 262 242 321 162 348 141 208 194 200 200 204 210 215 215 231 235 51 171 213 247 189 154 136 152 220 229 178 180 179 188 181 186 161 164 167
272 268 269 253 239 244 234 187 185 215 273 232 193 208 216 197 197 191 191 199 206 211 211 221 236 267 220 186 172 218 227 225 170 185 216 221 205 178 185 194 203 207 169 155 168
269 263 263 253 236 238 236 202 242 210 252 251 224 220 225 205 198 190 192 196 202 214 218 221 238 222 216 222 226 228 238 149 279 192 217 241 231 169 185 201 201 205 190 175 173
267 260 255 246 230 225 236 216 196 189 272 204 203 215 204 185 193 189 196 193 209 222 227 230 249 240 216 241 218 219 262 97 237 254 247 208 220 209 207 207 208 200 222 140 155
261 256 248 237 205 205 181 191 175 182 266 176 181 194 183 181 161 190 197 192 208 211 227 235 224 227 237 231 224 258 223 258 248 249 253 252 224 193 187 207 214 213 221 227 185
253 248 239 224 204 229 189 178 177 207 236 163 169 173 177 191 181 180 192 196 210 216 231 237 249 228 238 218 224 191 251 241 240 241 260 255 229 160 177 184 192 220 209 242 165
248 241 231 206 192 194 176 166 194 232 149 164 181 177 182 182 178 185 184 195 209 212 212 225 233 218 201 204 212 228 247 251 226 223 235 332 324 174 173 173 188 202 206 214 214
247 237 226 211 197 189 173 179 231 218 205 172 180 178 186 179 184 183 190 200 211 216 190 205 199 206 208 228 208 212 232 254 281 293 290 300 29 233 185 227 187 190 204 202 214
246 232 217 196 191 190 176 200 208 218 230 171 177 181 195 185 189 194 208 215 215 221 250 227 238 190 205 216 236 241 252 272 285 278 233 57 11 89 234 198 183 202 198 198 211
236 210 206 194 189 184 195 215 224 309 342 182 185 189 196 189 207 196 201 219 221 220 234 257 237 184 200 211 226 240 252 292 241 259 262 350 301 207 182 214 202 196 181 172 180
162 116 225 194 190 190 212 222 236 267 242 178 191 192 204 189 203 198 209 214 208 212 221 252 256 205 119 218 247 231 246 257 271 298 316 184 243 233 267 240 278 210 181 176 182
142 194 245 214 194 207 216 224 277 235 222 251 249 208 209 191 204 216 206 195 185 194 219 230 322 189 241 292 246 229 228 256 260 4 318 280 257 241 312 123 149 169 180 168 165
146 225 250 198 201 211 221 234 240 211 230 232 234 233 209 195 206 214 123 132 170 187 217 257 339 154 271 292 339 306 302 266 279 285 240 260 9 310 161 168 165 164 167 171 178
152 196 195 206 212 254 230 240 220 214 246 213 222 230 217 203 198 151 163 202 184 195 251 265 282 137 151 266 280 305 330 320 300 307 326 314 12 141 134 272 207 172 152 158 155
175 238 222 210 217 226 248 234 211 203 217 198 213 234 204 216 195 211 159 175 177 207 239 250 152 144 121 205 199 240 318 297 297 302 307 306 312 247 290 251 195 185 196 160 158
292 264 164 218 210 220 252 240 202 203 202 202 217 215 207 169 111 93 137 158 186 204 214 232 249 173 163 176 218 239 269 273 284 287 285 291 302 326 63 168 192 150 196 224 272
224 232 177 246 201 218 228 215 216 222 201 189 216 257 232 194 30 45 353 226 177 173 182 233 267 65 281 226 231 225 245 271 287 314 315 297 339 320 342 333 343 246 215 183 194